Location: Friaudour
(46.0460°N, 1.2873°E)
Time: 21:04:14
(UTC+00:00)

ADEOS II - Pass Details

Date: 14 July 2020
Orbit: 799 x 801 km, 98.5° (Epoch: 14 August)

Event Time Altitude Azimuth Distance (km) Brightness Sun altitude
Rises 02:57:35 0° 9° (N) 3,322 6.4 -11.4°
Reaches altitude 10° 02:59:59 10° 4° (N) 2,387 5.4 -11.1°
Maximum altitude 03:05:02 49° 291° (WNW) 1,029 2.5 -10.5°
Enters shadow 03:09:34 13° 219° (SW) 2,180 3.7 -10.0°
